| time (UTC) | temp F | wind direction | speed MPH | gust MPH | rain 1hr in | rain 24hr in | rain mn in | humidity % | barometer mb |
| 20260503174018 | 56 | 135 | 0.0 | 2.0 | 0.00 | 0.06 | 0.04 | 81 | 1010.1 |
| 20260503173518 | 56 | 90 | 0.0 | 2.0 | 0.00 | 0.08 | 0.04 | 81 | 1009.9 |
| 20260503173018 | 56 | 158 | 0.0 | 2.0 | 0.00 | 0.10 | 0.04 | 81 | 1009.9 |
| 20260503172518 | 56 | 112 | 1.0 | 6.0 | 0.00 | 0.12 | 0.04 | 80 | 1009.8 |
| 20260503172017 | 55 | 79 | 1.0 | 6.0 | 0.00 | 0.12 | 0.04 | 80 | 1010.0 |
| 20260503171518 | 55 | 135 | 0.0 | 0.0 | 0.00 | 0.14 | 0.04 | 79 | 1010.1 |
| 20260503171018 | 55 | 135 | 0.0 | 0.0 | 0.00 | 0.14 | 0.04 | 79 | 1010.1 |
| 20260503170519 | 56 | 90 | 0.0 | 2.0 | 0.00 | 0.14 | 0.04 | 78 | 1009.9 |
| 20260503150519 | 67 | 81 | 2.0 | 5.0 | 0.00 | 0.10 | 0.00 | 61 | 1009.7 |
| 20260503131017 | 68 | 63 | 0.0 | 6.0 | 0.00 | 0.32 | 0.00 | 62 | 1011.2 |
| 20260503130518 | 68 | 90 | 1.0 | 7.0 | 0.00 | 0.32 | 0.00 | 63 | 1011.4 |
| 20260503110520 | 68 | 165 | 1.0 | 6.0 | 0.00 | 0.32 | 0.00 | 63 | 1012.4 |
| 20260503081517 | 79 | 135 | 3.0 | 6.0 | 0.00 | 0.32 | 0.00 | 55 | 1012.4 |
| 20260503081017 | 79 | 194 | 1.0 | 5.0 | 0.00 | 0.32 | 0.00 | 57 | 1012.3 |
| 20260503080516 | 78 | 179 | 0.0 | 7.0 | 0.00 | 0.32 | 0.00 | 62 | 1012.4 |
| 20260503072517 | 60 | 202 | 1.0 | 3.0 | 0.00 | 0.32 | 0.00 | 86 | 1012.5 |
| 20260503072017 | 61 | 202 | 0.0 | 3.0 | 0.00 | 0.32 | 0.00 | 87 | 1012.6 |
| 20260503071518 | 61 | 135 | 1.0 | 5.0 | 0.00 | 0.32 | 0.00 | 88 | 1012.6 |
| 20260503071018 | 61 | 268 | 0.0 | 0.0 | 0.00 | 0.32 | 0.00 | 89 | 1012.5 |
| 20260503070518 | 62 | 164 | 1.0 | 5.0 | 0.00 | 0.32 | 0.00 | 92 | 1012.4 |
| 20260503055017 | 51 | 340 | 0.0 | 0.0 | 0.00 | 0.32 | 0.00 | 93 | 1012.5 |
| 20260503054516 | 50 | 338 | 0.0 | 0.0 | 0.00 | 0.32 | 0.00 | 93 | 1012.4 |
| 20260503054018 | 50 | 338 | 0.0 | 0.0 | 0.00 | 0.32 | 0.00 | 93 | 1012.3 |
| 20260503053517 | 50 | 338 | 0.0 | 0.0 | 0.00 | 0.32 | 0.00 | 93 | 1012.2 |
| 20260503053017 | 50 | 338 | 0.0 | 0.0 | 0.00 | 0.32 | 0.00 | 92 | 1012.1 |
| 20260503052517 | 49 | 338 | 0.0 | 2.0 | 0.00 | 0.32 | 0.00 | 92 | 1012.1 |
| 20260503052017 | 49 | 251 | 0.0 | 0.0 | 0.00 | 0.32 | 0.00 | 92 | 1012.1 |
| 20260503051517 | 49 | 248 | 0.0 | 0.0 | 0.00 | 0.32 | 0.00 | 92 | 1012.0 |
| 20260503051017 | 49 | 248 | 0.0 | 0.0 | 0.00 | 0.32 | 0.00 | 92 | 1011.9 |
| 20260503050517 | 49 | 248 | 0.0 | 0.0 | 0.00 | 0.32 | 0.00 | 92 | 1011.8 |
| 20260503050018 | 49 | 248 | 0.0 | 0.0 | 0.00 | 0.32 | 0.00 | 92 | 1011.9 |
| 20260503045517 | 49 | 248 | 0.0 | 0.0 | 0.00 | 0.32 | 0.00 | 92 | 1012.0 |
| 20260503045017 | 50 | 248 | 0.0 | 0.0 | 0.00 | 0.32 | 0.00 | 92 | 1011.8 |
| 20260503044517 | 50 | 248 | 0.0 | 0.0 | 0.00 | 0.32 | 0.00 | 92 | 1011.9 |
| 20260503044016 | 50 | 248 | 0.0 | 0.0 | 0.00 | 0.32 | 0.00 | 92 | 1012.0 |
| 20260503043517 | 50 | 248 | 0.0 | 3.0 | 0.00 | 0.32 | 0.00 | 93 | 1012.1 |
| 20260503043017 | 50 | 264 | 0.0 | 0.0 | 0.00 | 0.32 | 0.00 | 93 | 1012.1 |
| 20260503042518 | 50 | 202 | 0.0 | 0.0 | 0.00 | 0.32 | 0.00 | 93 | 1012.2 |
| 20260503042016 | 50 | 180 | 0.0 | 0.0 | 0.00 | 0.32 | 0.00 | 92 | 1012.1 |
| 20260503041517 | 50 | 202 | 0.0 | 0.0 | 0.00 | 0.32 | 0.00 | 92 | 1012.0 |
| 20260503041016 | 50 | 225 | 0.0 | 0.0 | 0.00 | 0.32 | 0.00 | 92 | 1012.2 |
| 20260503040517 | 50 | 182 | 0.0 | 0.0 | 0.00 | 0.32 | 0.00 | 92 | 1012.3 |
| 20260503040017 | 50 | 180 | 0.0 | 1.0 | 0.00 | 0.32 | 0.00 | 92 | 1012.1 |
| 20260503035517 | 50 | 180 | 0.0 | 1.0 | 0.00 | 0.32 | 0.00 | 92 | 1012.2 |
| 20260503035017 | 50 | 180 | 0.0 | 2.0 | 0.00 | 0.32 | 0.00 | 92 | 1012.2 |
| 20260503034517 | 50 | 189 | 0.0 | 2.0 | 0.00 | 0.32 | 0.00 | 92 | 1012.3 |
| 20260503034017 | 50 | 180 | 0.0 | 3.0 | 0.00 | 0.32 | 0.00 | 92 | 1012.2 |
| 20260503033517 | 50 | 187 | 0.0 | 3.0 | 0.00 | 0.32 | 0.00 | 92 | 1012.3 |
| 20260503033016 | 50 | 189 | 0.0 | 1.0 | 0.00 | 0.32 | 0.00 | 92 | 1012.2 |
| 20260503032517 | 50 | 202 | 0.0 | 0.0 | 0.00 | 0.32 | 0.00 | 92 | 1012.3 |
| 20260503032017 | 50 | 120 | 0.0 | 0.0 | 0.00 | 0.32 | 0.00 | 92 | 1012.3 |
| 20260503031517 | 50 | 112 | 0.0 | 0.0 | 0.00 | 0.32 | 0.00 | 93 | 1012.4 |
| 20260503031017 | 51 | 90 | 0.0 | 0.0 | 0.00 | 0.32 | 0.00 | 93 | 1012.4 |
| 20260503030517 | 51 | 90 | 0.0 | 0.0 | 0.00 | 0.32 | 0.00 | 93 | 1012.5 |
| 20260503030016 | 50 | 90 | 0.0 | 0.0 | 0.00 | 0.32 | 0.00 | 93 | 1012.6 |
| 20260503025516 | 50 | 90 | 0.0 | 0.0 | 0.00 | 0.32 | 0.00 | 93 | 1012.8 |
| 20260503025017 | 50 | 90 | 0.0 | 0.0 | 0.00 | 0.32 | 0.00 | 93 | 1012.6 |
| 20260503024517 | 51 | 90 | 0.0 | 0.0 | 0.00 | 0.32 | 0.00 | 93 | 1012.5 |
| 20260503024017 | 51 | 45 | 0.0 | 0.0 | 0.00 | 0.32 | 0.00 | 93 | 1012.5 |
| 20260503023516 | 51 | 45 | 0.0 | 0.0 | 0.00 | 0.32 | 0.00 | 92 | 1012.5 |
| 20260503023017 | 51 | 48 | 0.0 | 0.0 | 0.00 | 0.32 | 0.00 | 92 | 1012.5 |
| 20260503022516 | 51 | 22 | 0.0 | 1.0 | 0.00 | 0.32 | 0.00 | 92 | 1012.6 |
| 20260503022018 | 51 | 315 | 0.0 | 0.0 | 0.00 | 0.32 | 0.00 | 92 | 1012.5 |
| 20260503021516 | 51 | 45 | 0.0 | 0.0 | 0.00 | 0.32 | 0.00 | 92 | 1012.5 |
| 20260503021018 | 51 | 45 | 0.0 | 0.0 | 0.00 | 0.32 | 0.00 | 92 | 1012.6 |
| 20260503020517 | 51 | 68 | 0.0 | 0.0 | 0.00 | 0.32 | 0.00 | 92 | 1012.6 |
| 20260503020016 | 51 | 62 | 0.0 | 0.0 | 0.00 | 0.32 | 0.00 | 92 | 1012.6 |
| 20260503015517 | 51 | 68 | 0.0 | 0.0 | 0.00 | 0.32 | 0.00 | 92 | 1012.8 |
| 20260503015016 | 51 | 135 | 0.0 | 0.0 | 0.00 | 0.32 | 0.00 | 92 | 1012.7 |
| 20260503014517 | 50 | 90 | 0.0 | 3.0 | 0.00 | 0.32 | 0.00 | 92 | 1012.7 |
| 20260503014016 | 50 | 99 | 0.0 | 2.0 | 0.00 | 0.32 | 0.00 | 92 | 1012.8 |
| 20260503013517 | 50 | 121 | 1.0 | 3.0 | 0.00 | 0.32 | 0.00 | 92 | 1012.8 |
| 20260503013018 | 50 | 93 | 0.0 | 1.0 | 0.00 | 0.32 | 0.00 | 92 | 1012.8 |
| 20260503012516 | 50 | 197 | 0.0 | 0.0 | 0.00 | 0.32 | 0.00 | 92 | 1012.9 |
| 20260503012017 | 50 | 22 | 0.0 | 0.0 | 0.00 | 0.32 | 0.00 | 92 | 1012.9 |
| 20260503011516 | 50 | 22 | 0.0 | 0.0 | 0.00 | 0.32 | 0.00 | 92 | 1012.9 |
| 20260503011016 | 50 | 22 | 0.0 | 0.0 | 0.00 | 0.32 | 0.00 | 92 | 1012.9 |
| 20260503010518 | 50 | 22 | 0.0 | 0.0 | 0.00 | 0.32 | 0.00 | 92 | 1013.3 |
| 20260503010017 | 49 | 112 | 0.0 | 0.0 | 0.00 | 0.32 | 0.00 | 91 | 1013.3 |
| 20260503005517 | 49 | 112 | 0.0 | 0.0 | 0.00 | 0.32 | 0.00 | 91 | 1013.2 |
| 20260503005019 | 49 | 112 | 0.0 | 0.0 | 0.00 | 0.32 | 0.00 | 91 | 1013.2 |
| 20260503004516 | 49 | 112 | 0.0 | 0.0 | 0.00 | 0.32 | 0.00 | 91 | 1013.3 |
| 20260503004019 | 50 | 112 | 0.0 | 0.0 | 0.00 | 0.32 | 0.00 | 91 | 1013.3 |
| 20260503003518 | 50 | 112 | 0.0 | 0.0 | 0.00 | 0.32 | 0.00 | 91 | 1013.3 |
| 20260503003017 | 50 | 112 | 0.0 | 0.0 | 0.00 | 0.32 | 0.00 | 91 | 1013.3 |
| 20260503002517 | 50 | 135 | 0.0 | 0.0 | 0.00 | 0.32 | 0.00 | 91 | 1013.3 |
| 20260503002018 | 50 | 135 | 0.0 | 0.0 | 0.00 | 0.32 | 0.00 | 91 | 1013.4 |
| 20260503001517 | 50 | 129 | 0.0 | 0.0 | 0.00 | 0.32 | 0.00 | 91 | 1013.3 |
| 20260503001017 | 50 | 94 | 0.0 | 0.0 | 0.00 | 0.32 | 0.00 | 91 | 1013.2 |
| 20260503000518 | 51 | 77 | 0.0 | 0.0 | 0.00 | 0.32 | 0.00 | 91 | 1013.5 |
| 20260503000019 | 51 | 68 | 0.0 | 0.0 | 0.00 | 0.32 | 0.00 | 91 | 1013.5 |
| 20260502235517 | 51 | 68 | 0.0 | 0.0 | 0.00 | 0.32 | 0.00 | 91 | 1013.5 |
| 20260502235016 | 51 | 72 | 0.0 | 0.0 | 0.00 | 0.32 | 0.00 | 91 | 1013.5 |
| 20260502234519 | 51 | 45 | 0.0 | 0.0 | 0.00 | 0.32 | 0.00 | 91 | 1013.3 |
| 20260502234016 | 51 | 68 | 0.0 | 0.0 | 0.00 | 0.32 | 0.00 | 91 | 1013.5 |
| 20260502233516 | 51 | 68 | 0.0 | 0.0 | 0.00 | 0.32 | 0.00 | 91 | 1013.6 |
| 20260502233016 | 51 | 70 | 0.0 | 3.0 | 0.00 | 0.32 | 0.00 | 91 | 1013.6 |
| 20260502232516 | 51 | 112 | 0.0 | 0.0 | 0.00 | 0.32 | 0.00 | 91 | 1013.5 |
| 20260502232016 | 51 | 112 | 0.0 | 0.0 | 0.00 | 0.32 | 0.00 | 91 | 1013.7 |
| 20260502231517 | 52 | 112 | 0.0 | 0.0 | 0.00 | 0.32 | 0.00 | 91 | 1013.6 |
| 20260502231016 | 52 | 112 | 0.0 | 0.0 | 0.00 | 0.32 | 0.00 | 91 | 1013.6 |
| 20260502230516 | 52 | 112 | 0.0 | 0.0 | 0.00 | 0.32 | 0.00 | 91 | 1013.5 |
| 20260502230016 | 52 | 112 | 0.0 | 0.0 | 0.00 | 0.32 | 0.00 | 91 | 1013.6 |
| 20260502225516 | 52 | 112 | 0.0 | 0.0 | 0.00 | 0.32 | 0.00 | 91 | 1013.6 |
| 20260502225017 | 52 | 112 | 0.0 | 0.0 | 0.00 | 0.32 | 0.00 | 91 | 1013.7 |
| 20260502224517 | 52 | 112 | 0.0 | 0.0 | 0.00 | 0.32 | 0.00 | 90 | 1013.6 |
| 20260502224017 | 51 | 135 | 0.0 | 0.0 | 0.00 | 0.32 | 0.00 | 90 | 1013.5 |
| 20260502223517 | 51 | 135 | 0.0 | 0.0 | 0.00 | 0.32 | 0.00 | 90 | 1013.4 |
| 20260502223016 | 51 | 135 | 0.0 | 0.0 | 0.00 | 0.32 | 0.00 | 90 | 1013.5 |
| 20260502222516 | 51 | 135 | 0.0 | 0.0 | 0.00 | 0.32 | 0.00 | 90 | 1013.5 |
| 20260502222018 | 52 | 135 | 0.0 | 0.0 | 0.00 | 0.32 | 0.00 | 90 | 1013.5 |
| 20260502221516 | 52 | 135 | 0.0 | 0.0 | 0.00 | 0.32 | 0.00 | 90 | 1013.5 |
| 20260502221019 | 52 | 135 | 0.0 | 0.0 | 0.00 | 0.32 | 0.00 | 89 | 1013.4 |
| 20260502220516 | 52 | 135 | 0.0 | 0.0 | 0.00 | 0.32 | 0.00 | 89 | 1013.3 |
| 20260502220017 | 52 | 135 | 0.0 | 0.0 | 0.00 | 0.32 | 0.00 | 89 | 1013.4 |
| 20260502215516 | 53 | 101 | 0.0 | 0.0 | 0.00 | 0.32 | 0.32 | 89 | 1013.4 |
| 20260502215017 | 53 | 90 | 0.0 | 0.0 | 0.00 | 0.32 | 0.32 | 89 | 1013.5 |
| 20260502214516 | 53 | 100 | 0.0 | 0.0 | 0.00 | 0.32 | 0.32 | 89 | 1013.5 |
| 20260502214016 | 53 | 158 | 0.0 | 0.0 | 0.00 | 0.32 | 0.32 | 89 | 1013.5 |
| 20260502213517 | 53 | 112 | 0.0 | 0.0 | 0.00 | 0.32 | 0.32 | 89 | 1013.4 |
| 20260502213017 | 53 | 78 | 0.0 | 0.0 | 0.00 | 0.32 | 0.32 | 89 | 1013.5 |
| 20260502212516 | 53 | 112 | 0.0 | 0.0 | 0.00 | 0.32 | 0.32 | 89 | 1013.5 |
| 20260502212017 | 53 | 112 | 0.0 | 0.0 | 0.00 | 0.32 | 0.32 | 89 | 1013.4 |
| 20260502211518 | 54 | 112 | 0.0 | 0.0 | 0.00 | 0.32 | 0.32 | 89 | 1013.4 |
| 20260502211017 | 54 | 112 | 0.0 | 0.0 | 0.00 | 0.32 | 0.32 | 89 | 1013.3 |
| 20260502210516 | 54 | 112 | 0.0 | 0.0 | 0.00 | 0.32 | 0.32 | 89 | 1013.4 |
| 20260502210016 | 54 | 116 | 0.0 | 0.0 | 0.00 | 0.32 | 0.32 | 89 | 1013.4 |
| 20260502205516 | 54 | 135 | 0.0 | 0.0 | 0.00 | 0.32 | 0.32 | 89 | 1013.4 |
| 20260502205017 | 54 | 135 | 0.0 | 0.0 | 0.00 | 0.32 | 0.32 | 89 | 1013.3 |
| 20260502204516 | 54 | 135 | 0.0 | 0.0 | 0.00 | 0.32 | 0.32 | 89 | 1013.3 |
| 20260502204017 | 54 | 135 | 0.0 | 0.0 | 0.00 | 0.32 | 0.32 | 89 | 1013.2 |
| 20260502203516 | 54 | 119 | 0.0 | 0.0 | 0.00 | 0.32 | 0.32 | 89 | 1013.1 |
| 20260502203018 | 54 | 135 | 0.0 | 0.0 | 0.00 | 0.32 | 0.32 | 89 | 1013.1 |
| 20260502202516 | 54 | 135 | 0.0 | 0.0 | 0.00 | 0.32 | 0.32 | 89 | 1013.2 |
| 20260502202016 | 54 | 135 | 0.0 | 0.0 | 0.00 | 0.32 | 0.32 | 89 | 1013.2 |
| 20260502201516 | 54 | 135 | 0.0 | 0.0 | 0.00 | 0.32 | 0.32 | 88 | 1013.2 |
| 20260502201016 | 54 | 112 | 0.0 | 0.0 | 0.00 | 0.32 | 0.32 | 88 | 1013.1 |
| 20260502200516 | 54 | 112 | 0.0 | 0.0 | 0.00 | 0.32 | 0.32 | 88 | 1013.1 |
| 20260502200016 | 54 | 110 | 0.0 | 0.0 | 0.00 | 0.32 | 0.32 | 88 | 1013.2 |
| 20260502195516 | 54 | 100 | 0.0 | 0.0 | 0.00 | 0.32 | 0.32 | 88 | 1013.3 |
| 20260502195016 | 54 | 112 | 0.0 | 0.0 | 0.00 | 0.32 | 0.32 | 88 | 1013.3 |
| 20260502194517 | 54 | 112 | 0.0 | 0.0 | 0.00 | 0.32 | 0.32 | 87 | 1013.2 |
| 20260502194016 | 54 | 112 | 0.0 | 0.0 | 0.00 | 0.32 | 0.32 | 87 | 1013.1 |
| 20260502193516 | 54 | 112 | 0.0 | 0.0 | 0.00 | 0.32 | 0.32 | 87 | 1013.1 |
| 20260502193016 | 54 | 112 | 0.0 | 0.0 | 0.00 | 0.32 | 0.32 | 87 | 1013.2 |
| 20260502192516 | 54 | 112 | 0.0 | 0.0 | 0.00 | 0.32 | 0.32 | 87 | 1013.1 |
| 20260502192017 | 55 | 112 | 0.0 | 0.0 | 0.00 | 0.32 | 0.32 | 87 | 1012.9 |
| 20260502191517 | 55 | 112 | 0.0 | 0.0 | 0.00 | 0.32 | 0.32 | 87 | 1012.9 |
| 20260502191017 | 55 | 90 | 0.0 | 0.0 | 0.00 | 0.32 | 0.32 | 87 | 1012.8 |
| 20260502190516 | 55 | 90 | 0.0 | 0.0 | 0.00 | 0.32 | 0.32 | 87 | 1012.7 |
| 20260502190016 | 55 | 135 | 0.0 | 0.0 | 0.00 | 0.32 | 0.32 | 87 | 1012.8 |
| 20260502185516 | 55 | 135 | 0.0 | 0.0 | 0.00 | 0.32 | 0.32 | 86 | 1012.8 |
| 20260502185016 | 55 | 112 | 0.0 | 1.0 | 0.00 | 0.32 | 0.32 | 86 | 1012.8 |
| 20260502184517 | 56 | 90 | 0.0 | 0.0 | 0.02 | 0.32 | 0.32 | 86 | 1012.9 |
| 20260502184016 | 55 | 90 | 0.0 | 0.0 | 0.02 | 0.32 | 0.32 | 86 | 1013.1 |
| 20260502183516 | 56 | 90 | 0.0 | 0.0 | 0.04 | 0.32 | 0.32 | 86 | 1013.3 |
| 20260502183016 | 56 | 90 | 0.0 | 0.0 | 0.06 | 0.32 | 0.32 | 85 | 1013.1 |
| 20260502182516 | 56 | 90 | 0.0 | 0.0 | 0.08 | 0.32 | 0.32 | 85 | 1013.0 |
| 20260502182019 | 56 | 45 | 0.0 | 0.0 | 0.08 | 0.32 | 0.32 | 85 | 1013.2 |
| 20260502181516 | 56 | 45 | 0.0 | 0.0 | 0.10 | 0.32 | 0.32 | 85 | 1013.3 |
| 20260502181017 | 56 | 45 | 0.0 | 0.0 | 0.10 | 0.32 | 0.32 | 84 | 1013.4 |
| 20260502180517 | 56 | 45 | 0.0 | 0.0 | 0.10 | 0.32 | 0.32 | 84 | 1013.3 |